Regional Weather Roundup
Issued by NWS

Home | Current Version | Previous Version | Graphics & Text | Print | Product List | Glossary On
Versions: 1 2 3 4 5 6 7 8 9 10 11 12 13 14 15 16 17 18 19 20 21 22 23 24 25 26 27 28 29 30 31 32 33 34 35 36 37 38 39 40 41 42 43 44 45 46 47 48 49 50
000
ASUS43 KDTX 241610
RWRMI
MICHIGAN HOURLY REGIONAL WEATHER ROUNDUP
NATIONAL WEATHER SERVICE DETROIT/PONTIAC MI
1100 AM EST FRI NOV 24 2017

NOTE: "FAIR" INDICATES FEW OR NO CLOUDS BELOW 12,000 FEET WITH NO
SIGNIFICANT WEATHER AND/OR OBSTRUCTION TO VISIBILITY.

MIZ047>049-052>055-059>063-066>070-074>076-081>083-241700-
SOUTHEAST LOWER MICHIGAN

CITY           SKY/WX    TMP DP  RH WIND       PRES   REMARKS
ADRIAN         SUNNY     40  28  62 SW14G22   29.83F WCI  32
ALMA           CLOUDY    39  31  71 S12       29.69F WCI  32
ANN ARBOR      MOSUNNY   40  29  64 S10       29.80F WCI  33
BAD AXE        MOSUNNY   44  29  56 SW14      29.69F
CARO           CLOUDY    46  30  53 S16G22    29.70F
DETROIT CITY   MOSUNNY   44  27  51 SW13      29.82F
DETROIT        PTSUNNY   44  28  53 S13       29.83F
FLINT          MOSUNNY   46  27  47 SW15G21   29.75F
GROSSE ILE     SUNNY     41  31  68 S16       29.83F
HILLSDALE      SUNNY     43  27  52 S15G21    29.78F
HOWELL         CLOUDY    44  28  53 S8        29.76F

CITY           SKY/WX    TMP DP  RH WIND       PRES   REMARKS
JACKSON        SUNNY     49  27  42 S14       29.77F
LAMBERTVILLE   SUNNY     46  28  49 SW10G18   29.84F
LANSING        SUNNY     46  29  51 SW17      29.75F
LAPEER         FAIR      46  28  50 SW14      29.75F
MASON          SUNNY     49  29  47 S6        29.76S
MONROE         SUNNY     46  27  46 SW10G18   29.82F
MT. CLEMENS    PTSUNNY   46  28  51 SW14G21   29.79F
PONTIAC        MOSUNNY   42  27  55 S14G20    29.77F
PORT HOPE        N/A     44  28  53 SW12G23   29.65F
PORT HURON     SUNNY     43  28  56 S17       29.79F
TRI CITIES     CLOUDY    43  30  60 SW18      29.69F
MIDLAND        PTSUNNY   41  29  63 SW12G20   29.67F
TROY           MOSUNNY   44  26  49 S8G18     29.81F
SAGINAW HB     CLOUDY    43  30  61 SW20G25   29.69F
$$
MIZ043>046-050>051-056>058-064>065-071>073-077>080-241700-
SOUTHWEST LOWER MICHIGAN

CITY           SKY/WX    TMP DP  RH WIND       PRES   REMARKS
BATTLE CREEK   SUNNY     46  29  51 SW16      29.77F
BENTON HARBOR  SUNNY     47  28  47 S14G21    29.74F
BIG RAPIDS     MOSUNNY   44  35  70 SW9       29.63F
COLDWATER      SUNNY     47  25  43 SW17      29.79S
FREMONT        FAIR      44  37  77 S12       29.66S
HOLLAND        SUNNY     50  32  50 SW17G24   29.70F
GRAND RAPIDS   PTSUNNY   47  32  56 S15       29.70F
IONIA          FAIR      46  29  52 SW14      29.71F
KALAMAZOO      SUNNY     46  27  47 S13       29.76F
LUDINGTON      SUNNY     51  36  57 S23       29.58F
MARSHALL       SUNNY     47  27  45 SW13G21   29.77S
MOUNT PLEASANT CLOUDY    42  28  58 SW10      29.66F
MUSKEGON       MOSUNNY   49  38  65 S23G33    29.67F
SOUTH HAVEN    SUNNY     48  29  47 S10G17    29.72F
$$
MIZ016>042-241700-
NORTHERN LOWER MICHIGAN

CITY           SKY/WX    TMP DP  RH WIND       PRES   REMARKS
ALPENA         CLOUDY    45  34  65 SW10      29.52F
BEAVER ISLAND  CLOUDY    49  40  71 SW22G33   29.42F
BELLAIRE       CLOUDY    51  37  59 S8        29.51F
CADILLAC       MOSUNNY   46  35  65 SW17G26   29.57F
CHARLEVOIX     PTSUNNY   49  36  61 S20G28    29.47F
FRANKFORT      MOSUNNY   53  37  53 S20G35    29.52F
GAYLORD        MOSUNNY   45  32  60 SW21G28   29.50F
GRAYLING       CLOUDY    41  32  69 S8        29.56S
HARBOR SPRINGS CLOUDY    50  35  55 SW14G21   29.47F
HOUGHTON LAKE  CLOUDY    40  33  76 S13       29.60F WCI  32
MANISTEE       MOSUNNY   55  36  48 S13G25    29.54F
OSCODA         MOSUNNY   41  28  59 SW20      29.59F
PELLSTON       CLOUDY    52  35  52 SW21G31   29.44F
ROGERS CITY    MOSUNNY   49  35  58 SW14G26   29.46F
TRAVERSE CITY  CLOUDY    50  34  54 S12G23    29.50F
$$
MIZ007>008-015-241700-
EASTERN UPPER MICHIGAN

CITY           SKY/WX    TMP DP  RH WIND       PRES   REMARKS
KINROSS        LGT RAIN  47  38  71 SW14G29   29.40F
MACKINAC ISLAN CLOUDY    51  35  53 SW20G31   29.42F
NEWBERRY       CLOUDY    44  39  83 SW21G33   29.36F
S. S. MARIE    MOSUNNY   44  37  76 VRB3      29.40F
MUNISING         N/A     44  33  65 S17G30    29.28F
$$
MIZ004>006-011>014-085-241700-
CENTRAL UPPER MICHIGAN

CITY           SKY/WX    TMP DP  RH WIND       PRES   REMARKS
MANISTIQUE     MOSUNNY   44  37  78 SW16G23   29.38S
ESCANABA       CLOUDY    45  37  73 S15       29.36F
MENOMINEE      MOSUNNY   48  34  58 SW13G18   29.41F
SAWYER-GWINN   SUNNY     39  30  70 S16       29.30F WCI  30
$$
MIZ001>003-009>011-084-241700-
WESTERN UPPER MICHIGAN

CITY           SKY/WX    TMP DP  RH WIND       PRES   REMARKS
IRON MOUNTAIN  MOSUNNY   47  32  56 S7        29.31F
HOUGHTON       CLOUDY    45  33  63 S9        29.20F
COPPER HARBOR    N/A     48  33  56 S5        29.20R
IRONWOOD       CLOUDY    46  35  65 SW13      29.26S
$$

ABBREVIATIONS USED IN REMARKS
   TC - TEMPERATURE IN CELSIUS
  WCI - WIND CHILL INDEX
   HX - HEAT INDEX
  VSB - VISIBILITY




USA.gov is the U.S. government's official web portal to all federal, state and local government web resources and services.